Regional Weather Roundup
Issued by NWS San Diego, CA

Home | Current Version | Previous Version | Text Only | Print | Product List | Glossary On
Versions: 1 2 3 4 5 6 7 8 9 10 11 12 13 14 15 16 17 18 19 20 21 22 23 24 25 26 27 28 29 30 31 32 33 34 35 36 37 38 39 40 41 42 43 44 45 46 47 48 49 50
000
ASUS46 KSGX 260103
RWRSGX

SAN DIEGO HOURLY WEATHER ROUNDUP
NATIONAL WEATHER SERVICE SAN DIEGO CA
500 PM PST SUN JAN 25 2015

NOTE: "FAIR" INDICATES FEW OR NO CLOUDS BELOW 12,000 FEET WITH NO
SIGNIFICANT WEATHER AND/OR OBSTRUCTIONS TO VISIBILITY.

CAZ042-043-060-061-PZZ750-775-260200-

GREATER SAN DIEGO AREA

CITY           SKY/WX    TMP DP  RH WIND       PRES   REMARKS
LINDBERGH FLD  CLOUDY    73  25  16 NW3       29.99R
POINT LOMA       N/A     70  17  13 NW6         N/A
BROWN FIELD    CLOUDY    71  25  17 CALM      29.99R
MIRAMAR MCAS   CLOUDY    71  25  17 N5        29.98S
MONTGOMERY FLD CLOUDY    72  27  18 N5        29.99R

$$

NORTH SAN DIEGO COUNTY

CITY           SKY/WX    TMP DP  RH WIND       PRES   REMARKS
CAMP PENDLETON MOCLDY    67  40  37 CALM      29.98R
OCEANSIDE AP   MOCLDY    68  42  38 CALM      29.97R
VISTA            N/A     68  45  42 CALM      29.98R
CARLSBAD       CLOUDY    67  39  35 NW5       29.98R
SAN MARCOS       N/A     69  37  31 CALM      29.97R
POWAY            N/A     71  35  27 CALM      30.00R

$$

EAST SAN DIEGO COUNTY

CITY           SKY/WX    TMP DP  RH WIND       PRES   REMARKS
RAMONA         CLOUDY    70  22  16 N3        30.01R
SANTEE LAKES     N/A     71  34  26 CALM      29.99R
LA MESA          N/A     72  29  20 CALM      29.93R
CAMPO            N/A     63  21  20 NE15G22   30.02R

$$

ORANGE COUNTY AND THE LOS ANGELES BASIN

CITY           SKY/WX    TMP DP  RH WIND       PRES   REMARKS
JOHN WAYNE AP  MOCLDY    73  37  27 SW7       29.98R
LAKE FOREST FR   N/A     73  27  18 CALM      29.87R
SANTA ANA        N/A     76  42  29 CALM      29.93R
HUNTINGTON BCH   N/A     68  51  54 SW1       29.99R
LOS ALAMITOS   FAIR      72  38  29 S7        29.97R
FULLERTON      MOCLDY    76  33  21 S5        29.96R
LONG BEACH     MOCLDY    75  32  20 W5        29.97R
L.A. AP        MOCLDY    69  36  29 W8        29.97R
L.A. DOWNTOWN  CLOUDY    78  33  19 CALM      29.95S

$$

THE INLAND EMPIRE

CITY           SKY/WX    TMP DP  RH WIND       PRES   REMARKS
CORONA         CLOUDY    76  31  19 E7        29.99R
CHINO          CLOUDY    78  30  17 E9        29.99R
ONTARIO        CLOUDY    78  26  14 NE12G21   29.98F
SAN BERNARDINO MOCLDY   N/A N/A N/A CALM      30.01R
RIVERSIDE AP   CLOUDY    76  27  16 CALM      29.99R
MARCH ARB      CLOUDY    72  29  20 E9G17     30.01R
FRENCH VALLEY  FAIR      70  30  23 S7        30.01S

$$

SAN BERNARDINO AND RIVERSIDE COUNTY MOUNTAINS

CITY           SKY/WX    TMP DP  RH WIND       PRES   REMARKS
BIG BEAR AP    CLOUDY    43  23  45 CALM      30.26R

$$

SOUTHERN DESERT INCLUDING THE COACHELLA VALLEY

CITY           SKY/WX    TMP DP  RH WIND       PRES   REMARKS
PALM SPRINGS   CLOUDY    77  28  16 W8        30.03R
THERMAL        MOCLDY    74  27  17 SE8       29.98R
BLYTHE         MOCLDY    70  36  28 S5        30.02S
IMPERIAL AP    MOCLDY    74  32  21 SW5       29.99S
EL CENTRO NAS  MOCLDY    74  29  19 SW5       30.00S
YUMA AZ        MOCLDY    71  34  25 CALM      30.00R
MEXICALI       MOCLDY    75  28  17 W6        30.00

$$

UPPER DESERT

CITY           SKY/WX    TMP DP  RH WIND       PRES   REMARKS
VICTORVILLE AP CLOUDY    64  27  24 SE6       30.12R
HESPERIA         N/A     63  31  30 CALM      30.25S
APPLE VALLEY     N/A     66  27  23 CALM      30.13R
PALMDALE       CLOUDY    61  33  35 SE7       30.09S
LANCASTER      CLOUDY    62  34  35 E8        30.09S
EDWARDS AFB    CLOUDY    63  37  39 E6        30.07F
DAGGETT        CLOUDY    67  27  22 E5        30.09S
29 PALMS N     CLOUDY    66  29  24 CALM      30.16S
NEEDLES        MOCLDY    73  29  19 N13       30.03S

$$

REGIONAL REPORTS

CITY           SKY/WX    TMP DP  RH WIND       PRES   REMARKS
SANTA BARBARA  CLOUDY    73  34  23 N3        29.96R
SANDBERG       CLOUDY    58  28  32 E14G22    30.15R
MT. WILSON       N/A     54  21  28 MISG        N/A
LAS VEGAS NV   PTCLDY    70  31  23 W3        30.11S
PHOENIX AZ     MOCLDY    72  23  16 CALM      30.03R
TIJUANA        MOCLDY    75  18  11 E8        30.01R

$$

OFFSHORE ISLANDS

CITY           SKY/WX    TMP DP  RH WIND       PRES   REMARKS
CATALINA ARPT  MOCLDY    69  19  15 SW7       30.05R
SAN NICOLAS IS PTCLDY   N/A N/A N/A N3        29.98S

$$

MARINE AND OFFSHORE BUOY REPORTS

STATION/POSITION SKY/WX   TEMP    WIND        PRES    SWELL
                          AIR SEA DIR/SP/G            HT/PER/DIR
                          (F)     (DEG/KT/KT) (MB)    (FT/S/D)
TANNER BANKS               65 63   CALM  /  4 1014.9F   8/280/15
S CLEMENTE BASIN           65 64  330/  6/  8 1014.6R   5/280/16
SAN NICOLAS IS.               64                N/A     7/290/14
SO. S. ROSA ISLA           64 62  270/  4/  4 1013.8S   7/15
W. S. BARBARA CH           64 61  350/  4/  6 1013.7F   7/280/15
S. MONICA BASIN            66 62  300/  2/  4 1015.3R   3/240/16
S PEDRO CHANNEL               62                N/A     3/270/17
DANA POINT                    63                N/A     2/280/15
CMP PENDLETON NS              62                N/A     3/240/17
OCEANSIDE OFFSHR              63                N/A     3/270/14
TORREY PINES OTR              63                N/A     3/270/17
LA JOLLA 1                 67 62   20/  4/  5 1015.1R
MISSION BAY BUOY              64                N/A     5/280/14
SAN DIEGO BAY                 62              1015.5R
POINT LOMA SOUTH              63                N/A     5/270/15

$$



USA.gov is the U.S. government's official web portal to all federal, state and local government web resources and services.